Waarnemingen

Advertentie
Mijn weer
Alghero, Italië (16520): temperatuur & dauwpunt: 11.12.2018 01:00:00 - 17.12.2018 01:00:00 (CET)Alghero, Italië (16520): windsnelheid: 11.12.2018 01:00:00 - 17.12.2018 01:00:00 (CET)Alghero, Italië (16520): windrichting: 11.12.2018 01:00:00 - 17.12.2018 01:00:00 (CET)Alghero, Italië (16520): luchtdruk: 11.12.2018 01:00:00 - 17.12.2018 01:00:00 (CET)Alghero, Italië (16520): zicht: 11.12.2018 01:00:00 - 17.12.2018 01:00:00 (CET)Alghero, Italië (16520): neerslag: 11.12.2018 01:00:00 - 17.12.2018 01:00:00 (CET)
Datum & Tijd tt [°C] td [°C] ff [km/u] ff [kn] dd ppp [hPa] vv [km] rr [mm]
17.12.2018 01:00:00 15,0 12,3 15 8 W 1015,5 10 -
17.12.2018 00:00:00 16,0 13,0 21 11 W - 10 -
16.12.2018 23:00:00 16,0 12,0 21 11 WZW - 10 -
16.12.2018 22:00:00 16,0 12,5 18 10 WZW 1015,6 10 0,0
16.12.2018 21:00:00 16,0 14,0 24 13 ZW - 10 -
16.12.2018 20:00:00 16,0 14,0 22 12 ZW - 10 -
16.12.2018 19:00:00 16,0 14,2 26 14 ZW 1014,6 10 -
16.12.2018 18:00:00 16,0 14,0 24 13 ZZW - 10 -
16.12.2018 17:00:00 15,0 14,0 22 12 ZZW - 10 -
16.12.2018 16:00:00 15,1 14,3 24 13 Z 1015,5 4,0 0,0
16.12.2018 15:00:00 15,0 13,0 24 13 Z - 7 -
16.12.2018 14:00:00 15,0 13,0 24 13 Z - 10 -
16.12.2018 13:00:00 16,0 12,5 22 12 Z 1017,0 10 -
16.12.2018 12:00:00 16,0 12,0 21 11 Z - 10 -
16.12.2018 11:00:00 16,0 12,0 21 11 ZZW - 10 -
16.12.2018 10:00:00 14,5 11,5 24 13 ZZW 1019,0 10 0,0
16.12.2018 09:00:00 - - - - - - - -
16.12.2018 08:00:00 13,0 11,0 16 9 ZZW - 10 -
16.12.2018 07:00:00 12,2 10,6 16 9 ZZW 1018,9 10 -
16.12.2018 06:00:00 12,0 10,0 15 8 ZZW - 10 -
16.12.2018 05:00:00 9,0 8,0 4 2 - - 10 -
16.12.2018 04:00:00 8,3 7,3 2 1 ONO 1019,6 10 0,0
16.12.2018 03:00:00 8,0 7,0 2 1 - - 10 -
16.12.2018 02:00:00 7,0 6,0 4 2 - - 10 -
16.12.2018 01:00:00 6,4 5,5 2 1 - 1020,6 10 -
16.12.2018 00:00:00 6,0 5,0 4 2 - - 10 -
15.12.2018 23:00:00 5,0 4,0 4 2 - - 10 -
15.12.2018 22:00:00 4,2 3,2 2 1 - 1020,7 10 0,0
15.12.2018 21:00:00 6,0 5,0 2 1 - - 10 -
15.12.2018 20:00:00 7,0 5,0 4 2 - - 10 -
15.12.2018 19:00:00 7,8 5,4 2 1 - 1020,2 10 -
15.12.2018 18:00:00 10,0 6,0 5 3 W - 10 -
15.12.2018 17:00:00 11,0 6,0 8 4 W - 10 -
15.12.2018 16:00:00 12,5 5,2 8 4 W 1019,1 10 0,0
15.12.2018 15:00:00 13,0 6,0 13 7 W - 10 -
15.12.2018 14:00:00 14,0 7,0 16 9 W - 10 -
15.12.2018 13:00:00 12,8 6,9 11 6 NNW 1018,6 10 -
15.12.2018 12:00:00 13,0 7,0 11 6 WNW - 10 -
15.12.2018 11:00:00 12,0 7,0 4 2 - - 10 -
15.12.2018 10:00:00 8,6 6,4 2 1 - 1018,7 10 0,0
15.12.2018 09:00:00 6,0 5,0 2 1 - - 10 -
15.12.2018 08:00:00 5,0 4,0 4 2 - - 10 -
15.12.2018 07:00:00 5,6 4,2 0 0 N 1017,0 10 -
15.12.2018 06:00:00 7,0 5,0 5 3 O - 10 -
15.12.2018 05:00:00 8,0 4,0 4 2 - - 10 -
15.12.2018 04:00:00 8,8 4,0 2 1 - 1015,9 10 0,0
15.12.2018 03:00:00 10,0 3,0 5 3 WNW - 10 -
15.12.2018 02:00:00 8,0 6,0 2 1 - - 10 -
15.12.2018 01:00:00 8,2 4,0 5 3 N 1015,1 10 -
15.12.2018 00:00:00 10,0 4,0 9 5 N - 10 -
14.12.2018 23:00:00 10,0 4,0 11 6 N - 10 -
14.12.2018 22:00:00 10,7 4,3 15 8 N 1014,4 10 0,0
14.12.2018 21:00:00 11,0 4,0 16 9 N - 10 -
14.12.2018 20:00:00 11,0 5,0 15 8 N - 10 -
14.12.2018 19:00:00 11,6 6,7 18 10 N 1012,5 10 -
14.12.2018 18:00:00 12,0 10,0 9 5 NNW - 10 -
14.12.2018 17:00:00 12,0 10,0 9 5 N - 10 -
14.12.2018 16:00:00 12,3 9,9 11 6 NNO 1009,8 10 0,0
14.12.2018 15:00:00 12,0 10,0 16 9 NO - 8 -
14.12.2018 14:00:00 12,0 11,0 16 9 NO - 8 -
14.12.2018 13:00:00 12,6 10,2 15 8 NO 1008,4 10 -
14.12.2018 12:00:00 13,0 10,0 13 7 NO - 10 -
14.12.2018 11:00:00 13,0 10,0 15 8 NO - 10 -
14.12.2018 10:00:00 11,9 10,4 15 8 NO 1007,3 10 0,0
14.12.2018 09:00:00 12,0 10,0 11 6 NNO - 10 -
14.12.2018 08:00:00 12,0 11,0 11 6 NO - 10 -
14.12.2018 07:00:00 11,7 11,0 11 6 NNO 1005,4 10 -
14.12.2018 06:00:00 12,0 11,0 9 5 NNO - 10 -
14.12.2018 05:00:00 12,0 11,0 8 4 NNW - 10 -
14.12.2018 04:00:00 11,9 11,3 11 6 N 1004,5 8 0,0
14.12.2018 03:00:00 13,0 12,0 8 4 NNO - 10 -
14.12.2018 02:00:00 14,0 13,0 9 5 ZZO - 10 -
14.12.2018 01:00:00 13,7 11,8 11 6 Z 1005,0 10 -
14.12.2018 00:00:00 15,0 13,0 15 8 Z - 10 -
13.12.2018 23:00:00 15,0 13,0 11 6 Z - 8 -
13.12.2018 22:00:00 13,7 12,2 9 5 Z 1005,3 10 0,0
13.12.2018 21:00:00 14,0 13,0 11 6 Z - 10 -
13.12.2018 20:00:00 15,0 13,0 22 12 Z - 8 -
13.12.2018 19:00:00 14,6 13,2 16 9 Z 1005,2 8 -
13.12.2018 18:00:00 15,0 14,0 15 8 ZZW - 7 -
13.12.2018 17:00:00 14,0 13,0 16 9 ZZW - 7 -
13.12.2018 16:00:00 14,4 13,1 21 11 ZZW 1006,4 7 0,0
13.12.2018 15:00:00 13,0 12,0 13 7 Z - 8 -
13.12.2018 14:00:00 13,0 11,0 21 11 Z - 10 -
13.12.2018 13:00:00 14,1 10,3 21 11 Z 1008,7 10 -
13.12.2018 12:00:00 13,0 11,0 18 10 Z - 10 -
13.12.2018 11:00:00 11,0 10,0 4 2 - - 10 -
13.12.2018 10:00:00 10,6 9,2 5 3 OZO 1011,7 10 0,0
13.12.2018 09:00:00 11,0 9,0 4 2 - - 8 -
13.12.2018 08:00:00 11,0 10,0 4 2 ZZW - 10 -
13.12.2018 07:00:00 11,8 9,4 15 8 Z 1012,2 10 -
13.12.2018 06:00:00 9,0 7,0 2 1 - - 10 -
13.12.2018 05:00:00 8,0 6,0 4 2 OZO - 10 -
13.12.2018 04:00:00 8,1 5,7 5 3 Z 1013,6 10 0,0
13.12.2018 03:00:00 8,0 6,0 9 5 ZW - 10 -
13.12.2018 02:00:00 8,0 7,0 2 1 - - 10 -
13.12.2018 01:00:00 7,9 6,6 2 1 - 1015,1 10 -
13.12.2018 00:00:00 8,0 7,0 2 1 - - 10 -
12.12.2018 23:00:00 8,0 7,0 4 2 NO - 10 -
12.12.2018 22:00:00 8,3 6,4 2 1 - 1015,8 10 0,0
12.12.2018 21:00:00 9,0 6,0 2 1 - - 10 -
12.12.2018 20:00:00 9,0 6,0 4 2 ZZW - 10 -
12.12.2018 19:00:00 9,8 5,9 4 2 - 1016,0 10 -
12.12.2018 18:00:00 11,0 6,0 5 3 ZW - 10 -
12.12.2018 17:00:00 13,0 7,0 8 4 WZW - 10 -
12.12.2018 16:00:00 13,5 6,9 9 5 WZW 1016,3 10 0,0
12.12.2018 15:00:00 14,0 7,0 15 8 W - 10 -
12.12.2018 14:00:00 15,0 6,0 16 9 W - 10 -
12.12.2018 13:00:00 14,6 7,1 16 9 W 1017,4 10 -
12.12.2018 12:00:00 15,0 6,0 15 8 W - 10 -
12.12.2018 11:00:00 14,0 8,0 15 8 W - 10 -
12.12.2018 10:00:00 13,7 8,0 9 5 WZW 1018,1 10 0,0
12.12.2018 09:00:00 10,0 7,0 8 4 WZW - 10 -
12.12.2018 08:00:00 7,0 6,0 2 1 - - 10 -
12.12.2018 07:00:00 7,1 5,1 8 4 OZO 1017,7 10 -
12.12.2018 06:00:00 9,0 6,0 9 5 W - 10 -
12.12.2018 05:00:00 7,0 6,0 2 1 - - 10 -
12.12.2018 04:00:00 6,8 5,5 2 1 - 1018,1 10 0,0
12.12.2018 03:00:00 7,0 5,0 4 2 - - 10 -
12.12.2018 02:00:00 8,0 6,0 5 3 NO - 10 -
12.12.2018 01:00:00 9,5 5,9 4 2 - 1018,2 10 -
12.12.2018 00:00:00 12,0 7,0 8 4 WZW - 10 -
11.12.2018 23:00:00 12,0 7,0 9 5 WZW - 10 -
11.12.2018 22:00:00 11,7 6,5 8 4 WZW 1018,6 10 0,0
11.12.2018 21:00:00 12,0 7,0 8 4 WZW - 10 -
11.12.2018 20:00:00 12,0 7,0 8 4 WZW - 10 -
11.12.2018 19:00:00 11,4 6,6 8 4 WZW 1018,1 10 -
11.12.2018 18:00:00 12,0 7,0 5 3 W - 10 -
11.12.2018 17:00:00 13,0 7,0 13 7 W - 10 -
11.12.2018 16:00:00 12,8 6,7 13 7 W 1018,0 10 0,0
11.12.2018 15:00:00 13,0 7,0 13 7 W - 10 -
11.12.2018 14:00:00 14,0 8,0 16 9 W - 10 -
11.12.2018 13:00:00 14,1 7,0 16 9 W 1018,7 10 -
11.12.2018 12:00:00 13,0 7,0 15 8 W - 10 -
11.12.2018 11:00:00 14,0 7,0 15 8 W - 10 -
11.12.2018 10:00:00 14,2 7,9 15 8 W 1019,3 10 0,0
11.12.2018 09:00:00 12,0 7,0 9 5 W - 10 -
11.12.2018 08:00:00 12,0 6,0 8 4 W - 10 -
11.12.2018 07:00:00 12,3 6,2 8 4 W 1018,8 10 -
11.12.2018 06:00:00 13,0 6,0 11 6 WNW - 10 -
11.12.2018 05:00:00 13,0 7,0 13 7 WNW - 10 -
11.12.2018 04:00:00 12,8 6,4 13 7 WNW 1019,3 10 0,0
11.12.2018 03:00:00 13,0 7,0 11 6 WNW - 10 -
11.12.2018 02:00:00 13,0 6,0 15 8 WNW - 10 -
11.12.2018 01:00:00 13,2 5,9 11 6 WNW 1020,4 10 -

tt = temperatuur
td = dauwpunt
ff = windsnelheid
dd = windrichting
ppp = luchtdruk
vv = zicht
rr = neerslag

Weerstations in de omgeving